This demonstration page uses our WeatherBlox Daily Observations layout. Learn more.

Left ArrowRight Arrow

39.51506, -84.39828

Hourly Observations for June 13, 2017

Temp ( °F °C ) Dew Point ( °F °C ) Humidity (%) Winds ( mph kmh ) Pressure ( in mb ) Visibility ( mi km ) Precip ( " mm )
12:15 am 00:15 Clear 74 23.6 66 19 75 75 N N/A 30.03 1017 10 16 N/A
12:35 am 00:35 Clear 74 23.6 67 19.5 78 78 N N/A 30.03 1017 10 16 N/A
12:55 am 00:55 Clear 74 23.6 67 19.5 78 78 N N/A 30.03 1017 10 16 N/A
1:15 am 01:15 Clear 74 23.6 67 19.7 79 79 N N/A 30.03 1017 10 16 N/A
1:35 am 01:35 Clear 74 23.6 68 19.8 79 79 N N/A 30.00 1016 10 16 N/A
1:55 am 01:55 Clear 74 23.6 66 19 75 75 N N/A 30.00 1016 10 16 N/A
2:15 am 02:15 Clear 74 23.6 66 18.9 75 75 N N/A 30.00 1016 10 16 N/A
2:35 am 02:35 Clear 74 23.6 67 19.3 77 77 N N/A 30.03 1017 10 16 N/A
2:55 am 02:55 Clear 74 23.6 68 20 80 80 N N/A 30.00 1016 10 16 N/A
3:15 am 03:15 Clear 74 23.6 68 20 80 80 N N/A 30.00 1016 10 16 N/A
3:35 am 03:35 Clear 74 23.6 68 20.1 81 81 W 3 6 30.00 1016 10 16 N/A
3:55 am 03:55 Clear 75 23.8 67 19.6 77 77 WSW 3 6 30.00 1016 10 16 N/A
4:15 am 04:15 Clear 77 25.1 69 20.6 76 76 SW 5 7 30.00 1016 10 16 N/A
4:35 am 04:35 Clear 74 23.6 67 19.5 78 78 SSW 6 9 30.00 1016 10 16 N/A
4:55 am 04:55 Clear 77 25.1 69 20.5 76 76 S 5 7 30.00 1016 10 16 N/A
5:15 am 05:15 Clear 74 23.6 67 19.7 79 79 SW 7 11 30.00 1016 10 16 N/A
5:35 am 05:35 Clear 75 23.7 68 19.8 79 79 S 3 6 30.00 1016 10 16 N/A
5:55 am 05:55 Clear 74 23.6 68 20 80 80 SSW 5 7 30.00 1016 10 16 N/A
6:15 am 06:15 Sunny 74 23.6 68 19.8 79 79 SSW 6 9 30.03 1017 10 16 N/A
6:35 am 06:35 Sunny 74 23.6 67 19.7 79 79 SW 5 7 30.03 1017 10 16 N/A
6:55 am 06:55 Sunny 74 23.6 67 19.7 79 79 SSW 3 6 30.03 1017 10 16 N/A
7:15 am 07:15 Sunny 74 23.6 68 19.8 79 79 SSW 3 6 30.03 1017 10 16 N/A
7:35 am 07:35 Sunny 74 23.6 67 19.6 78 78 N N/A 30.03 1017 10 16 N/A
7:55 am 07:55 Sunny 76 24.3 68 20 77 77 SW 3 6 30.03 1017 10 16 N/A
8:15 am 08:15 Sunny 77 25.1 68 20 73 73 SSW 3 6 30.03 1017 10 16 N/A
8:35 am 08:35 Sunny 77 25.1 67 19.4 71 71 SSW 5 7 30.03 1017 10 16 N/A
8:55 am 08:55 Sunny 77 25.1 67 19.7 72 72 SSW 3 6 30.06 1018 10 16 N/A
9:15 am 09:15 Sunny 77 25.1 67 19.7 72 72 SW 5 7 30.06 1018 10 16 N/A
9:35 am 09:35 Sunny 77 25.1 68 19.8 73 73 N N/A 30.06 1018 10 16 N/A
9:55 am 09:55 Sunny 80 26.5 70 21 72 72 S 3 6 30.06 1018 10 16 N/A
10:15 am 10:15 Sunny 80 26.5 69 20.6 70 70 S 3 6 30.06 1018 10 16 N/A
10:35 am 10:35 Sunny 81 27.2 70 20.9 69 69 N N/A 30.03 1017 10 16 N/A
10:55 am 10:55 Sunny 82 28 70 21.3 67 67 N N/A 30.03 1017 10 16 N/A
11:15 am 11:15 Sunny 83 28.3 70 21.2 65 65 SW 3 6 30.03 1017 10 16 N/A
11:35 am 11:35 Sunny 89 31.6 73 23 60 60 S 5 7 29.97 1015 10 16 N/A
11:55 am 11:55 Sunny 90 32.1 74 23.1 59 59 NW 7 11 30.00 1016 10 16 N/A
12:15 pm 12:15 Cloudy with Heavy Rain 75 23.9 64 18 70 70 N 17 28 30.03 1017 2 2 N/A
12:35 pm 12:35 Partly Cloudy with Heavy Rain 74 23.5 65 18.2 72 72 WSW 31 50 30.06 1018 3 4 N/A
12:55 pm 12:55 Mostly Cloudy with Rain 69 20.8 62 16.4 76 76 W 23 37 30.06 1018 4 6 N/A
1:15 pm 13:15 Cloudy with Rain 72 22.3 60 15.8 67 67 S 5 7 30.03 1017 3 4 N/A
1:35 pm 13:35 Cloudy with Light Rain 70 20.9 63 17.1 79 79 SSW 6 9 30.03 1017 10 16 N/A
1:55 pm 13:55 Partly Cloudy 72 22.4 65 18.6 79 79 N N/A 30.03 1017 10 16 N/A
2:15 pm 14:15 Sunny 74 23.6 68 20 80 80 NNE 5 7 30.03 1017 10 16 N/A
2:35 pm 14:35 Sunny 74 23.6 68 20.2 81 81 N N/A 30.03 1017 10 16 N/A
2:55 pm 14:55 Sunny 74 23.6 68 20.1 81 81 N N/A 30.03 1017 10 16 N/A
3:15 pm 15:15 Partly Cloudy with Light Rain 74 23.6 68 20.2 81 81 N 3 6 30.03 1017 7 11 N/A
3:35 pm 15:35 Partly Cloudy with Light Rain 74 23.6 69 20.5 83 83 N N/A 30.00 1016 10 16 N/A
3:55 pm 15:55 Sunny 74 23.6 68 20 80 80 N N/A 30.00 1016 10 16 N/A
4:15 pm 16:15 Sunny 76 24.5 70 21 81 81 SW 5 7 30.00 1016 10 16 N/A
4:35 pm 16:35 Sunny 77 25.1 69 20.7 77 77 S 5 7 29.97 1015 10 16 N/A
4:55 pm 16:55 Sunny 80 26.5 70 20.9 71 71 SSW 7 11 29.97 1015 10 16 N/A
5:15 pm 17:15 Sunny 80 26.5 70 20.9 71 71 SSW 7 11 29.97 1015 10 16 N/A
5:35 pm 17:35 Sunny 80 26.6 70 21 71 71 S 3 6 29.97 1015 10 16 N/A
5:55 pm 17:55 Sunny 80 26.7 70 21.1 71 71 N N/A 29.97 1015 10 16 N/A
6:15 pm 18:15 Sunny 81 27.2 70 21.1 69 69 SSW 5 7 29.97 1015 10 16 N/A
6:35 pm 18:35 Sunny 82 27.6 71 21.8 71 71 SSW 6 9 29.97 1015 10 16 N/A
6:55 pm 18:55 Sunny 82 28 72 22.1 70 70 SSW 6 9 29.94 1014 10 16 N/A
7:15 pm 19:15 Sunny 82 27.9 72 22.1 71 71 SSW 9 15 29.94 1014 10 16 N/A
7:35 pm 19:35 Sunny 81 27.2 71 21.8 72 72 SSW 7 11 29.97 1015 10 16 N/A
7:55 pm 19:55 Sunny 81 27.2 69 20.6 67 67 SW 7 11 29.97 1015 10 16 N/A
8:15 pm 20:15 Sunny 80 26.5 66 19.1 64 64 SSW 6 9 29.97 1015 10 16 N/A
8:35 pm 20:35 Sunny 79 26.1 66 18.8 64 64 SSW 5 7 29.97 1015 10 16 N/A
8:55 pm 20:55 Sunny 77 25.1 65 18.3 66 66 N N/A 29.97 1015 10 16 N/A
9:15 pm 21:15 Clear 75 24 65 18.2 70 70 WSW 6 9 30.00 1016 10 16 N/A
9:35 pm 21:35 Clear 74 23.6 66 19 75 75 N N/A 30.00 1016 10 16 N/A
9:55 pm 21:55 Clear 74 23.6 66 18.9 75 75 N N/A 30.00 1016 10 16 N/A
10:15 pm 22:15 Clear 74 23.6 66 18.7 74 74 N N/A 30.00 1016 10 16 N/A
10:35 pm 22:35 Clear 74 23.6 67 19.4 77 77 NE 8 13 30.03 1017 10 16 N/A
10:55 pm 22:55 Clear 73 23 66 19.1 79 79 N N/A 30.03 1017 10 16 N/A
11:15 pm 23:15 Clear 69 20.8 63 17.4 81 81 W 3 6 30.00 1016 10 16 N/A
11:35 pm 23:35 Clear 69 20.8 64 17.7 83 83 N N/A 30.00 1016 10 16 N/A
11:55 pm 23:55 Clear 69 20.8 64 17.8 83 83 N N/A 30.00 1016 10 16 N/A

Powered by AerisWeather